Time,TemperatureF,DewpointF,PressureIn,WindDirection,WindDirectionDegrees,WindSpeedMPH,WindSpeedGustMPH,Humidity,HourlyPrecipIn,Conditions,Clouds,dailyrainin,SoftwareType,DateUTC
2013-01-24 00:00:00,6.8,3.0,30.18,NE,50,2.0,4.0,84,0.00,,BKN110,0.00,VWS V14.01,2013-01-24 05:00:00,
2013-01-24 00:02:00,6.8,3.0,30.18,NNE,33,2.0,3.0,84,0.00,,BKN110,0.00,VWS V14.01,2013-01-24 05:02:00,
2013-01-24 00:07:00,6.7,2.9,30.18,NE,50,2.0,3.0,84,0.00,,BKN110,0.00,VWS V14.01,2013-01-24 05:07:00,
2013-01-24 00:12:00,6.7,2.9,30.17,NE,52,1.0,4.0,84,0.00,,BKN110,0.00,VWS V14.01,2013-01-24 05:12:00,
2013-01-24 00:17:00,6.6,2.8,30.17,NNE,13,1.0,4.0,84,0.00,,BKN110,0.00,VWS V14.01,2013-01-24 05:17:00,
2013-01-24 00:22:00,6.5,2.7,30.17,NNE,27,2.0,5.0,84,0.00,,BKN110,0.00,VWS V14.01,2013-01-24 05:22:00,
2013-01-24 00:27:00,6.5,2.7,30.17,NNE,32,2.0,5.0,84,0.00,,BKN110,0.00,VWS V14.01,2013-01-24 05:27:00,
2013-01-24 00:32:00,6.5,2.7,30.17,NNE,33,1.0,3.0,84,0.00,,BKN110,0.00,VWS V14.01,2013-01-24 05:32:00,
2013-01-24 00:37:00,6.4,2.6,30.16,NE,39,3.0,4.0,84,0.00,,BKN110,0.00,VWS V14.01,2013-01-24 05:37:00,
2013-01-24 00:42:00,6.4,2.6,30.16,NE,34,1.0,4.0,84,0.00,,BKN110,0.00,VWS V14.01,2013-01-24 05:42:00,
2013-01-24 00:47:00,6.4,2.6,30.15,NE,40,2.0,4.0,84,0.00,,BKN110,0.00,VWS V14.01,2013-01-24 05:47:00,
2013-01-24 00:52:00,6.4,2.6,30.16,NE,49,3.0,4.0,84,0.00,,BKN110,0.00,VWS V14.01,2013-01-24 05:52:00,
2013-01-24 00:57:00,6.5,2.7,30.16,NE,44,1.0,4.0,84,0.00,,BKN110,0.00,VWS V14.01,2013-01-24 05:57:00,
2013-01-24 01:02:00,6.5,2.7,30.16,NE,39,1.0,2.0,84,0.00,,OVC100,0.00,VWS V14.01,2013-01-24 06:02:00,
2013-01-24 01:07:00,6.5,2.7,30.15,NNE,32,2.0,3.0,84,0.00,,OVC100,0.00,VWS V14.01,2013-01-24 06:07:00,
2013-01-24 01:12:00,6.5,2.7,30.15,NE,52,1.0,3.0,84,0.00,,OVC100,0.00,VWS V14.01,2013-01-24 06:12:00,
2013-01-24 01:17:00,6.6,2.8,30.15,NNE,23,2.0,4.0,84,0.00,,OVC100,0.00,VWS V14.01,2013-01-24 06:17:00,
2013-01-24 01:22:00,6.6,2.8,30.15,NE,37,2.0,4.0,84,0.00,,OVC100,0.00,VWS V14.01,2013-01-24 06:22:00,
2013-01-24 01:27:00,6.7,2.9,30.15,NNE,32,4.0,4.0,84,0.00,,OVC100,0.00,VWS V14.01,2013-01-24 06:27:00,
2013-01-24 01:32:00,6.7,2.9,30.15,NE,50,1.0,4.0,84,0.00,,OVC100,0.00,VWS V14.01,2013-01-24 06:32:00,
2013-01-24 01:37:00,6.8,3.0,30.15,NNE,32,2.0,4.0,84,0.00,,OVC100,0.00,VWS V14.01,2013-01-24 06:37:00,
2013-01-24 01:42:00,6.8,3.0,30.15,NNE,31,1.0,4.0,84,0.00,,OVC100,0.00,VWS V14.01,2013-01-24 06:42:00,
2013-01-24 01:47:00,6.9,3.1,30.15,NE,39,2.0,4.0,84,0.00,,OVC100,0.00,VWS V14.01,2013-01-24 06:47:00,
2013-01-24 01:52:00,6.9,3.1,30.15,NNE,24,1.0,4.0,84,0.00,,OVC100,0.00,VWS V14.01,2013-01-24 06:52:00,
2013-01-24 01:57:00,7.0,3.2,30.15,NNE,31,0.0,4.0,84,0.00,,OVC100,0.00,VWS V14.01,2013-01-24 06:57:00,
2013-01-24 02:02:00,7.1,3.3,30.15,NNE,16,0.0,1.0,84,0.00,,OVC090,0.00,VWS V14.01,2013-01-24 07:02:00,
2013-01-24 02:07:00,7.2,3.4,30.15,North,8,1.0,2.0,84,0.00,,OVC090,0.00,VWS V14.01,2013-01-24 07:07:00,
2013-01-24 02:12:00,7.3,3.5,30.15,NNE,25,0.0,2.0,84,0.00,,OVC090,0.00,VWS V14.01,2013-01-24 07:12:00,
2013-01-24 02:17:00,7.4,3.6,30.15,NNE,23,1.0,2.0,84,0.00,,OVC090,0.00,VWS V14.01,2013-01-24 07:17:00,
2013-01-24 02:22:00,7.5,3.7,30.15,NNE,23,0.0,2.0,84,0.00,,OVC090,0.00,VWS V14.01,2013-01-24 07:22:00,
2013-01-24 02:27:00,7.6,3.8,30.15,NNE,23,1.0,2.0,84,0.00,,OVC090,0.00,VWS V14.01,2013-01-24 07:27:00,
2013-01-24 02:32:00,7.7,3.9,30.15,North,11,0.0,2.0,84,0.00,,OVC090,0.00,VWS V14.01,2013-01-24 07:32:00,
2013-01-24 02:37:00,7.7,3.9,30.15,NE,34,1.0,2.0,84,0.00,,OVC090,0.00,VWS V14.01,2013-01-24 07:37:00,
2013-01-24 02:42:00,7.8,4.0,30.15,NNE,32,1.0,2.0,84,0.00,,OVC090,0.00,VWS V14.01,2013-01-24 07:42:00,
2013-01-24 02:47:00,7.8,4.0,30.16,NE,37,2.0,3.0,84,0.00,,OVC090,0.00,VWS V14.01,2013-01-24 07:47:00,
2013-01-24 02:52:00,7.8,3.7,30.16,NE,42,0.0,3.0,83,0.00,,OVC090,0.00,VWS V14.01,2013-01-24 07:52:00,
2013-01-24 02:57:00,7.9,3.8,30.16,NE,41,0.0,3.0,83,0.00,,OVC090,0.00,VWS V14.01,2013-01-24 07:57:00,
2013-01-24 03:02:00,7.9,3.8,30.16,NE,41,0.0,1.0,83,0.00,,OVC070,0.00,VWS V14.01,2013-01-24 08:02:00,
2013-01-24 03:07:00,8.0,4.2,30.16,NE,41,0.0,1.0,84,0.00,,OVC070,0.00,VWS V14.01,2013-01-24 08:07:00,
2013-01-24 03:12:00,8.1,4.3,30.16,NNE,25,0.0,2.0,84,0.00,,OVC070,0.00,VWS V14.01,2013-01-24 08:12:00,
2013-01-24 03:17:00,8.2,4.4,30.16,NNE,26,1.0,2.0,84,0.00,,OVC070,0.00,VWS V14.01,2013-01-24 08:17:00,
2013-01-24 03:22:00,8.2,4.4,30.16,North,5,2.0,2.0,84,0.00,,OVC070,0.00,VWS V14.01,2013-01-24 08:22:00,
2013-01-24 03:27:00,8.3,4.2,30.16,NE,41,0.0,2.0,83,0.00,,OVC070,0.00,VWS V14.01,2013-01-24 08:27:00,
2013-01-24 03:32:00,8.4,4.3,30.16,NNE,30,0.0,2.0,83,0.00,,OVC070,0.00,VWS V14.01,2013-01-24 08:32:00,
2013-01-24 03:37:00,8.5,4.4,30.16,NNE,29,0.0,2.0,83,0.00,,OVC070,0.00,VWS V14.01,2013-01-24 08:37:00,
2013-01-24 03:42:00,8.5,4.4,30.16,NNE,29,0.0,2.0,83,0.00,,OVC070,0.00,VWS V14.01,2013-01-24 08:42:00,
2013-01-24 03:47:00,8.5,4.4,30.16,NNE,29,0.0,2.0,83,0.00,,OVC070,0.00,VWS V14.01,2013-01-24 08:47:00,
2013-01-24 03:52:00,8.6,4.5,30.16,NNE,29,0.0,2.0,83,0.00,,OVC070,0.00,VWS V14.01,2013-01-24 08:52:00,
2013-01-24 03:57:00,8.7,4.6,30.17,NNE,29,0.0,2.0,83,0.00,,OVC070,0.00,VWS V14.01,2013-01-24 08:57:00,
2013-01-24 04:02:00,8.7,4.6,30.17,NNE,29,0.0,0.0,83,0.00,,OVC055,0.00,VWS V14.01,2013-01-24 09:02:00,
2013-01-24 04:07:00,8.8,4.7,30.17,NNE,29,0.0,0.0,83,0.00,,OVC055,0.00,VWS V14.01,2013-01-24 09:07:00,
2013-01-24 04:12:00,8.8,4.7,30.17,NNE,29,0.0,0.0,83,0.00,,OVC055,0.00,VWS V14.01,2013-01-24 09:12:00,
2013-01-24 04:17:00,8.8,4.7,30.17,WNW,283,2.0,2.0,83,0.00,,OVC055,0.00,VWS V14.01,2013-01-24 09:17:00,
2013-01-24 04:22:00,9.1,5.3,30.17,WNW,288,0.0,3.0,84,0.00,,OVC055,0.00,VWS V14.01,2013-01-24 09:22:00,
2013-01-24 04:27:00,9.2,5.4,30.17,WNW,288,0.0,3.0,84,0.00,,OVC055,0.00,VWS V14.01,2013-01-24 09:27:00,
2013-01-24 04:32:00,9.3,5.4,30.18,NW,319,0.0,2.0,84,0.00,,OVC055,0.00,VWS V14.01,2013-01-24 09:32:00,
2013-01-24 04:37:00,9.4,5.6,30.18,WNW,293,2.0,3.0,84,0.00,,OVC055,0.00,VWS V14.01,2013-01-24 09:37:00,
2013-01-24 04:42:00,9.6,5.8,30.18,WNW,288,1.0,3.0,84,0.00,,OVC055,0.00,VWS V14.01,2013-01-24 09:42:00,
2013-01-24 04:47:00,9.7,5.8,30.18,WNW,293,2.0,3.0,84,0.00,,OVC055,0.00,VWS V14.01,2013-01-24 09:47:00,
2013-01-24 04:52:00,9.8,5.7,30.18,West,260,1.0,4.0,83,0.00,,OVC055,0.00,VWS V14.01,2013-01-24 09:52:00,
2013-01-24 04:57:00,9.9,5.8,30.18,West,278,3.0,5.0,83,0.00,,OVC055,0.00,VWS V14.01,2013-01-24 09:57:00,
2013-01-24 05:02:00,10.0,5.9,30.19,West,279,2.0,3.0,83,0.00,,OVC070,0.00,VWS V14.01,2013-01-24 10:02:00,
2013-01-24 05:07:00,10.0,5.9,30.19,WNW,283,2.0,3.0,83,0.00,,OVC070,0.00,VWS V14.01,2013-01-24 10:07:00,
2013-01-24 05:12:00,10.0,5.9,30.19,West,263,1.0,3.0,83,0.00,,OVC070,0.00,VWS V14.01,2013-01-24 10:12:00,
2013-01-24 05:17:00,10.0,6.1,30.19,West,265,2.0,4.0,84,0.00,,OVC070,0.00,VWS V14.01,2013-01-24 10:17:00,
2013-01-24 05:22:00,10.1,6.2,30.19,WNW,295,4.0,4.0,84,0.00,,OVC070,0.00,VWS V14.01,2013-01-24 10:22:00,
2013-01-24 05:27:00,10.1,6.2,30.20,WNW,288,4.0,5.0,84,0.00,,OVC070,0.00,VWS V14.01,2013-01-24 10:27:00,
2013-01-24 05:32:00,10.2,6.3,30.20,WNW,283,4.0,6.0,84,0.00,,OVC070,0.00,VWS V14.01,2013-01-24 10:32:00,
2013-01-24 05:37:00,10.2,6.6,30.20,WNW,301,3.0,6.0,85,0.00,,OVC070,0.00,VWS V14.01,2013-01-24 10:37:00,
2013-01-24 05:42:00,10.2,6.3,30.20,WNW,287,1.0,6.0,84,0.00,,OVC070,0.00,VWS V14.01,2013-01-24 10:42:00,
2013-01-24 05:47:00,10.3,6.7,30.20,WNW,293,4.0,6.0,85,0.00,,OVC070,0.00,VWS V14.01,2013-01-24 10:47:00,
2013-01-24 05:52:00,10.2,6.6,30.20,WNW,293,4.0,6.0,85,0.00,,OVC070,0.00,VWS V14.01,2013-01-24 10:52:00,
2013-01-24 05:57:00,10.3,6.7,30.21,WNW,295,4.0,6.0,85,0.00,,OVC070,0.00,VWS V14.01,2013-01-24 10:57:00,
2013-01-24 06:02:00,10.3,6.7,30.21,West,278,4.0,6.0,85,0.00,,OVC080,0.00,VWS V14.01,2013-01-24 11:02:00,
2013-01-24 06:07:00,10.3,6.7,30.21,WNW,295,4.0,6.0,85,0.00,,OVC080,0.00,VWS V14.01,2013-01-24 11:07:00,
2013-01-24 06:12:00,10.4,6.8,30.21,WNW,287,3.0,6.0,85,0.00,,OVC080,0.00,VWS V14.01,2013-01-24 11:12:00,
2013-01-24 06:17:00,10.5,6.9,30.21,WNW,295,3.0,6.0,85,0.00,,OVC080,0.00,VWS V14.01,2013-01-24 11:17:00,
2013-01-24 06:22:00,10.6,7.0,30.22,WNW,292,3.0,6.0,85,0.00,,OVC080,0.00,VWS V14.01,2013-01-24 11:22:00,
2013-01-24 06:27:00,10.5,6.9,30.22,WNW,284,4.0,6.0,85,0.00,,OVC080,0.00,VWS V14.01,2013-01-24 11:27:00,
2013-01-24 06:32:00,10.6,7.0,30.22,WNW,285,4.0,6.0,85,0.00,,OVC080,0.00,VWS V14.01,2013-01-24 11:32:00,
2013-01-24 06:37:00,10.6,7.0,30.22,WNW,288,3.0,6.0,85,0.00,,OVC080,0.00,VWS V14.01,2013-01-24 11:37:00,
2013-01-24 06:42:00,10.6,7.0,30.23,WNW,291,1.0,6.0,85,0.00,,OVC080,0.00,VWS V14.01,2013-01-24 11:42:00,
2013-01-24 06:47:00,10.6,7.0,30.23,West,280,1.0,6.0,85,0.00,,OVC080,0.00,VWS V14.01,2013-01-24 11:47:00,
2013-01-24 06:52:00,10.6,7.0,30.24,WNW,287,1.0,6.0,85,0.00,,OVC080,0.00,VWS V14.01,2013-01-24 11:52:00,
2013-01-24 06:57:00,10.6,7.0,30.24,WNW,286,1.0,6.0,85,0.00,,OVC080,0.00,VWS V14.01,2013-01-24 11:57:00,
2013-01-24 07:02:00,10.7,7.1,30.24,WNW,297,1.0,5.0,85,0.00,,OVC080,0.00,VWS V14.01,2013-01-24 12:02:00,
2013-01-24 07:07:00,10.7,7.1,30.24,WNW,290,2.0,5.0,85,0.00,,OVC080,0.00,VWS V14.01,2013-01-24 12:07:00,
2013-01-24 07:12:00,10.8,7.2,30.25,WNW,302,0.0,5.0,85,0.00,,OVC080,0.00,VWS V14.01,2013-01-24 12:12:00,
2013-01-24 07:17:00,10.9,7.3,30.25,WSW,257,2.0,5.0,85,0.00,,OVC080,0.00,VWS V14.01,2013-01-24 12:17:00,
2013-01-24 07:22:00,11.0,7.4,30.25,NW,305,0.0,5.0,85,0.00,,OVC080,0.00,VWS V14.01,2013-01-24 12:22:00,
2013-01-24 07:27:00,11.0,7.4,30.26,WNW,291,4.0,5.0,85,0.00,,OVC080,0.00,VWS V14.01,2013-01-24 12:27:00,
2013-01-24 07:32:00,11.1,7.5,30.26,West,281,0.0,2.0,85,0.00,,OVC080,0.00,VWS V14.01,2013-01-24 12:32:00,
2013-01-24 07:37:00,11.3,7.7,30.26,West,269,3.0,8.0,85,0.00,,OVC080,0.00,VWS V14.01,2013-01-24 12:37:00,
2013-01-24 07:42:00,11.4,7.8,30.26,West,281,4.0,8.0,85,0.00,,OVC080,0.00,VWS V14.01,2013-01-24 12:42:00,
2013-01-24 07:47:00,11.5,7.9,30.27,WNW,288,2.0,8.0,85,0.00,,OVC080,0.00,VWS V14.01,2013-01-24 12:47:00,
2013-01-24 07:52:00,11.5,8.1,30.27,WNW,294,2.0,8.0,86,0.00,,OVC080,0.00,VWS V14.01,2013-01-24 12:52:00,
2013-01-24 07:57:00,11.5,7.9,30.27,WNW,291,6.0,8.0,85,0.00,,OVC080,0.00,VWS V14.01,2013-01-24 12:57:00,
2013-01-24 08:02:00,11.4,7.8,30.28,WNW,283,5.0,8.0,85,0.00,,,0.00,VWS V14.01,2013-01-24 13:02:00,
2013-01-24 08:07:00,11.4,7.8,30.28,WNW,298,4.0,8.0,85,0.00,,,0.00,VWS V14.01,2013-01-24 13:07:00,
2013-01-24 08:12:00,11.4,7.8,30.28,WNW,303,4.0,8.0,85,0.00,,,0.00,VWS V14.01,2013-01-24 13:12:00,
2013-01-24 08:17:00,11.5,7.9,30.28,West,278,5.0,9.0,85,0.00,,,0.00,VWS V14.01,2013-01-24 13:17:00,
2013-01-24 08:22:00,11.6,8.0,30.29,WNW,293,4.0,9.0,85,0.00,,,0.00,VWS V14.01,2013-01-24 13:22:00,
2013-01-24 08:27:00,11.7,8.1,30.29,West,281,7.0,9.0,85,0.00,,,0.00,VWS V14.01,2013-01-24 13:27:00,
2013-01-24 08:32:00,11.9,8.0,30.30,WNW,297,5.0,8.0,84,0.00,,,0.00,VWS V14.01,2013-01-24 13:32:00,
2013-01-24 08:37:00,11.9,8.0,30.30,WNW,295,8.0,9.0,84,0.00,,,0.00,VWS V14.01,2013-01-24 13:37:00,
2013-01-24 08:42:00,12.0,7.8,30.30,WNW,290,4.0,12.0,83,0.00,,,0.00,VWS V14.01,2013-01-24 13:42:00,
2013-01-24 08:47:00,12.1,7.9,30.31,NW,319,5.0,12.0,83,0.00,,,0.00,VWS V14.01,2013-01-24 13:47:00,
2013-01-24 08:52:00,12.2,7.8,30.31,West,269,1.0,14.0,82,0.00,,,0.00,VWS V14.01,2013-01-24 13:52:00,
2013-01-24 08:57:00,12.4,7.7,30.31,WSW,257,9.0,14.0,81,0.00,,,0.00,VWS V14.01,2013-01-24 13:57:00,
2013-01-24 09:01:00,12.5,7.8,30.32,WNW,283,8.0,8.0,81,0.00,,CLR,0.00,VWS V14.01,2013-01-24 14:01:00,
2013-01-24 09:07:00,12.8,8.1,30.32,WNW,283,3.0,10.0,81,0.00,,CLR,0.00,VWS V14.01,2013-01-24 14:07:00,
2013-01-24 09:12:00,13.0,8.0,30.32,WNW,292,6.0,10.0,80,0.00,,CLR,0.00,VWS V14.01,2013-01-24 14:12:00,
2013-01-24 09:17:00,13.1,7.8,30.32,WNW,285,4.0,10.0,79,0.00,,CLR,0.00,VWS V14.01,2013-01-24 14:17:00,
2013-01-24 09:21:00,13.5,8.2,30.33,WNW,288,5.0,10.0,79,0.00,,CLR,0.00,VWS V14.01,2013-01-24 14:21:00,
2013-01-24 09:26:00,13.7,8.1,30.33,WNW,293,9.0,10.0,78,0.00,,CLR,0.00,VWS V14.01,2013-01-24 14:26:00,
2013-01-24 09:31:00,13.9,8.0,30.33,WNW,297,7.0,7.0,77,0.00,,CLR,0.00,VWS V14.01,2013-01-24 14:31:00,
2013-01-24 09:36:00,14.2,8.0,30.33,WNW,300,2.0,8.0,76,0.00,,CLR,0.00,VWS V14.01,2013-01-24 14:36:00,
2013-01-24 09:41:00,14.5,8.0,30.33,WNW,285,4.0,8.0,75,0.00,,CLR,0.00,VWS V14.01,2013-01-24 14:41:00,
2013-01-24 09:46:00,14.9,8.4,30.33,West,278,2.0,8.0,75,0.00,,CLR,0.00,VWS V14.01,2013-01-24 14:46:00,
2013-01-24 09:51:00,15.3,8.2,30.34,WNW,285,6.0,8.0,73,0.00,,CLR,0.00,VWS V14.01,2013-01-24 14:51:00,
2013-01-24 09:56:00,15.3,8.2,30.34,West,275,2.0,8.0,73,0.00,,CLR,0.00,VWS V14.01,2013-01-24 14:56:00,
2013-01-24 10:01:00,15.4,8.0,30.34,WNW,288,2.0,4.0,72,0.00,,CLR,0.00,VWS V14.01,2013-01-24 15:01:00,
2013-01-24 10:06:00,15.7,8.3,30.34,North,360,1.0,6.0,72,0.00,,CLR,0.00,VWS V14.01,2013-01-24 15:06:00,
2013-01-24 10:11:00,15.9,7.5,30.34,North,9,0.0,6.0,69,0.00,,CLR,0.00,VWS V14.01,2013-01-24 15:11:00,
2013-01-24 10:16:00,16.2,7.8,30.35,WSW,256,1.0,6.0,69,0.00,,CLR,0.00,VWS V14.01,2013-01-24 15:16:00,
2013-01-24 10:21:00,16.3,6.3,30.35,SW,233,2.0,9.0,64,0.00,,CLR,0.00,VWS V14.01,2013-01-24 15:21:00,
2013-01-24 10:26:00,16.8,7.1,30.35,NE,37,3.0,10.0,65,0.00,,CLR,0.00,VWS V14.01,2013-01-24 15:26:00,
2013-01-24 10:31:00,17.0,6.2,30.35,NE,46,2.0,6.0,62,0.00,,CLR,0.00,VWS V14.01,2013-01-24 15:31:00,
2013-01-24 10:36:00,17.2,6.1,30.35,NE,36,1.0,8.0,61,0.00,,CLR,0.00,VWS V14.01,2013-01-24 15:36:00,
2013-01-24 10:41:00,17.7,6.9,30.35,NW,311,8.0,8.0,62,0.00,,CLR,0.00,VWS V14.01,2013-01-24 15:41:00,
2013-01-24 10:46:00,18.0,6.5,30.36,NE,34,6.0,8.0,60,0.00,,CLR,0.00,VWS V14.01,2013-01-24 15:46:00,
2013-01-24 10:51:00,17.7,5.8,30.36,NNE,23,0.0,11.0,59,0.00,,CLR,0.00,VWS V14.01,2013-01-24 15:51:00,
2013-01-24 10:56:00,17.6,6.1,30.35,WNW,285,5.0,11.0,60,0.00,,CLR,0.00,VWS V14.01,2013-01-24 15:56:00,
2013-01-24 11:01:00,18.1,6.6,30.36,NNW,345,6.0,10.0,60,0.00,,SCT034,0.00,VWS V14.01,2013-01-24 16:01:00,
2013-01-24 11:06:00,18.5,6.9,30.36,North,359,3.0,10.0,60,0.00,,SCT034,0.00,VWS V14.01,2013-01-24 16:06:00,
2013-01-24 11:11:00,18.5,6.2,30.36,WNW,285,8.0,14.0,58,0.00,,SCT034,0.00,VWS V14.01,2013-01-24 16:11:00,
2013-01-24 11:16:00,18.6,6.3,30.36,WNW,291,2.0,14.0,58,0.00,,SCT034,0.00,VWS V14.01,2013-01-24 16:16:00,
2013-01-24 11:21:00,19.0,6.7,30.36,North,355,6.0,14.0,58,0.00,,SCT034,0.00,VWS V14.01,2013-01-24 16:21:00,
2013-01-24 11:26:00,19.3,6.6,30.36,NNE,23,3.0,14.0,57,0.00,,SCT034,0.00,VWS V14.01,2013-01-24 16:26:00,
2013-01-24 11:31:00,19.5,6.8,30.36,NNW,341,6.0,10.0,57,0.00,,SCT034,0.00,VWS V14.01,2013-01-24 16:31:00,
2013-01-24 11:36:00,19.8,6.7,30.36,NW,305,5.0,11.0,56,0.00,,SCT034,0.00,VWS V14.01,2013-01-24 16:36:00,
2013-01-24 11:41:00,20.1,6.5,30.36,WNW,286,8.0,13.0,55,0.00,,SCT034,0.00,VWS V14.01,2013-01-24 16:41:00,
2013-01-24 11:46:00,20.4,6.4,30.36,NNW,337,2.0,13.0,54,0.00,,SCT034,0.00,VWS V14.01,2013-01-24 16:46:00,
2013-01-24 11:51:00,20.6,5.3,30.36,WNW,293,8.0,13.0,51,0.00,,SCT034,0.00,VWS V14.01,2013-01-24 16:51:00,
2013-01-24 11:56:00,20.6,5.8,30.36,NE,34,4.0,14.0,52,0.00,,SCT034,0.00,VWS V14.01,2013-01-24 16:56:00,
2013-01-24 12:01:00,21.2,6.8,30.36,NNW,330,4.0,7.0,53,0.00,,CLR,0.00,VWS V14.01,2013-01-24 17:01:00,
2013-01-24 12:06:00,21.6,5.0,30.36,NNW,344,10.0,14.0,48,0.00,,CLR,0.00,VWS V14.01,2013-01-24 17:06:00,
2013-01-24 12:11:00,21.8,5.1,30.36,ENE,65,2.0,14.0,48,0.00,,CLR,0.00,VWS V14.01,2013-01-24 17:11:00,
2013-01-24 12:16:00,22.4,5.7,30.37,WNW,287,2.0,14.0,48,0.00,,CLR,0.00,VWS V14.01,2013-01-24 17:16:00,
2013-01-24 12:21:00,22.4,5.2,30.37,North,11,4.0,14.0,47,0.00,,CLR,0.00,VWS V14.01,2013-01-24 17:21:00,
2013-01-24 12:26:00,22.2,4.6,30.37,NE,35,1.0,14.0,46,0.00,,CLR,0.00,VWS V14.01,2013-01-24 17:26:00,
2013-01-24 12:31:00,22.2,5.1,30.37,WNW,288,2.0,9.0,47,0.00,,CLR,0.00,VWS V14.01,2013-01-24 17:31:00,
2013-01-24 12:36:00,22.0,4.4,30.37,ENE,74,2.0,12.0,46,0.00,,CLR,0.00,VWS V14.01,2013-01-24 17:36:00,
2013-01-24 12:41:00,22.1,5.0,30.37,North,349,5.0,12.0,47,0.00,,CLR,0.00,VWS V14.01,2013-01-24 17:41:00,
2013-01-24 12:46:00,22.3,4.7,30.37,WNW,285,6.0,12.0,46,0.00,,CLR,0.00,VWS V14.01,2013-01-24 17:46:00,
2013-01-24 12:51:00,22.1,4.0,30.37,NW,317,5.0,19.0,45,0.00,,CLR,0.00,VWS V14.01,2013-01-24 17:51:00,
2013-01-24 12:56:00,22.2,4.6,30.36,West,278,5.0,19.0,46,0.00,,CLR,0.00,VWS V14.01,2013-01-24 17:56:00,
2013-01-24 13:01:00,22.3,3.7,30.36,NE,36,4.0,9.0,44,0.00,,BKN060,0.00,VWS V14.01,2013-01-24 18:01:00,
2013-01-24 13:06:00,22.3,3.7,30.36,West,280,6.0,9.0,44,0.00,,BKN060,0.00,VWS V14.01,2013-01-24 18:06:00,
2013-01-24 13:11:00,22.4,3.8,30.36,North,9,7.0,9.0,44,0.00,,BKN060,0.00,VWS V14.01,2013-01-24 18:11:00,
2013-01-24 13:16:00,22.3,2.7,30.36,NNE,16,10.0,12.0,42,0.00,,BKN060,0.00,VWS V14.01,2013-01-24 18:16:00,
2013-01-24 13:21:00,22.7,4.1,30.36,NNE,20,10.0,12.0,44,0.00,,BKN060,0.00,VWS V14.01,2013-01-24 18:21:00,
2013-01-24 13:26:00,22.9,3.8,30.36,NNW,332,6.0,14.0,43,0.00,,BKN060,0.00,VWS V14.01,2013-01-24 18:26:00,
2013-01-24 13:31:00,23.2,4.0,30.36,NNE,17,7.0,7.0,43,0.00,,BKN060,0.00,VWS V14.01,2013-01-24 18:31:00,
2013-01-24 13:36:00,23.4,3.7,30.36,NNW,340,9.0,12.0,42,0.00,,BKN060,0.00,VWS V14.01,2013-01-24 18:36:00,
2013-01-24 13:41:00,23.6,3.9,30.36,West,281,2.0,12.0,42,0.00,,BKN060,0.00,VWS V14.01,2013-01-24 18:41:00,
2013-01-24 13:46:00,23.5,2.7,30.36,NE,49,3.0,14.0,40,0.00,,BKN060,0.00,VWS V14.01,2013-01-24 18:46:00,
2013-01-24 13:51:00,23.5,2.2,30.37,NE,51,9.0,15.0,39,0.00,,BKN060,0.00,VWS V14.01,2013-01-24 18:51:00,
2013-01-24 13:56:00,23.9,2.6,30.36,North,11,7.0,15.0,39,0.00,,BKN060,0.00,VWS V14.01,2013-01-24 18:56:00,
2013-01-24 14:01:00,24.4,3.6,30.36,NE,56,3.0,5.0,40,0.00,,FEW060,0.00,VWS V14.01,2013-01-24 19:01:00,
2013-01-24 14:06:00,24.5,3.7,30.37,West,271,12.0,15.0,40,0.00,,FEW060,0.00,VWS V14.01,2013-01-24 19:06:00,
2013-01-24 14:11:00,24.5,3.7,30.37,WNW,285,10.0,15.0,40,0.00,,FEW060,0.00,VWS V14.01,2013-01-24 19:11:00,
2013-01-24 14:16:00,24.2,3.4,30.37,NW,319,7.0,15.0,40,0.00,,FEW060,0.00,VWS V14.01,2013-01-24 19:16:00,
2013-01-24 14:21:00,24.3,3.5,30.37,NNE,17,4.0,15.0,40,0.00,,FEW060,0.00,VWS V14.01,2013-01-24 19:21:00,
2013-01-24 14:26:00,24.7,3.3,30.37,NE,52,3.0,17.0,39,0.00,,FEW060,0.00,VWS V14.01,2013-01-24 19:26:00,
2013-01-24 14:31:00,24.8,3.4,30.37,West,276,12.0,12.0,39,0.00,,FEW060,0.00,VWS V14.01,2013-01-24 19:31:00,
2013-01-24 14:36:00,24.8,3.4,30.37,NE,39,5.0,16.0,39,0.00,,FEW060,0.00,VWS V14.01,2013-01-24 19:36:00,
2013-01-24 14:41:00,24.9,3.5,30.38,WNW,290,4.0,16.0,39,0.00,,FEW060,0.00,VWS V14.01,2013-01-24 19:41:00,
2013-01-24 14:46:00,24.6,2.1,30.38,North,11,8.0,16.0,37,0.00,,FEW060,0.00,VWS V14.01,2013-01-24 19:46:00,
2013-01-24 14:51:00,24.7,3.3,30.39,NNE,30,7.0,16.0,39,0.00,,FEW060,0.00,VWS V14.01,2013-01-24 19:51:00,
2013-01-24 14:56:00,24.0,2.1,30.39,ENE,69,5.0,17.0,38,0.00,,FEW060,0.00,VWS V14.01,2013-01-24 19:56:00,
2013-01-24 15:01:00,23.7,2.9,30.39,NE,36,3.0,5.0,40,0.00,,CLR,0.00,VWS V14.01,2013-01-24 20:01:00,
2013-01-24 15:06:00,23.9,3.1,30.40,WNW,300,6.0,10.0,40,0.00,,CLR,0.00,VWS V14.01,2013-01-24 20:06:00,
2013-01-24 15:11:00,23.8,3.0,30.40,North,1,9.0,12.0,40,0.00,,CLR,0.00,VWS V14.01,2013-01-24 20:11:00,
2013-01-24 15:16:00,23.6,3.4,30.40,NW,311,6.0,13.0,41,0.00,,CLR,0.00,VWS V14.01,2013-01-24 20:16:00,
2013-01-24 15:21:00,23.7,3.5,30.41,WNW,290,5.0,15.0,41,0.00,,CLR,0.00,VWS V14.01,2013-01-24 20:21:00,
2013-01-24 15:26:00,24.2,4.4,30.40,WNW,283,7.0,15.0,42,0.00,,CLR,0.00,VWS V14.01,2013-01-24 20:26:00,
2013-01-24 15:31:00,24.4,4.1,30.41,NNE,24,3.0,13.0,41,0.00,,CLR,0.00,VWS V14.01,2013-01-24 20:31:00,
2013-01-24 15:36:00,24.2,3.9,30.41,West,270,7.0,13.0,41,0.00,,CLR,0.00,VWS V14.01,2013-01-24 20:36:00,
2013-01-24 15:41:00,24.2,4.9,30.41,WNW,293,3.0,13.0,43,0.00,,CLR,0.00,VWS V14.01,2013-01-24 20:41:00,
2013-01-24 15:46:00,23.7,3.5,30.41,NW,325,4.0,13.0,41,0.00,,CLR,0.00,VWS V14.01,2013-01-24 20:46:00,
2013-01-24 15:51:00,23.5,3.8,30.41,NNE,32,6.0,13.0,42,0.00,,CLR,0.00,VWS V14.01,2013-01-24 20:51:00,
2013-01-24 15:56:00,23.3,3.6,30.42,WNW,302,4.0,17.0,42,0.00,,CLR,0.00,VWS V14.01,2013-01-24 20:56:00,
2013-01-24 16:01:00,23.2,3.0,30.42,NNE,27,8.0,12.0,41,0.00,,BKN060,0.00,VWS V14.01,2013-01-24 21:01:00,
2013-01-24 16:06:00,23.1,3.4,30.42,NE,44,5.0,13.0,42,0.00,,BKN060,0.00,VWS V14.01,2013-01-24 21:06:00,
2013-01-24 16:11:00,22.9,2.7,30.42,NNE,30,4.0,13.0,41,0.00,,BKN060,0.00,VWS V14.01,2013-01-24 21:11:00,
2013-01-24 16:16:00,22.7,3.1,30.42,NW,324,4.0,13.0,42,0.00,,BKN060,0.00,VWS V14.01,2013-01-24 21:16:00,
2013-01-24 16:21:00,22.5,3.4,30.42,SW,214,1.0,13.0,43,0.00,,BKN060,0.00,VWS V14.01,2013-01-24 21:21:00,
2013-01-24 16:26:00,22.3,3.2,30.42,North,1,8.0,14.0,43,0.00,,BKN060,0.00,VWS V14.01,2013-01-24 21:26:00,
2013-01-24 16:31:00,22.4,3.3,30.42,NNE,29,8.0,8.0,43,0.00,,SCT060,0.00,VWS V14.01,2013-01-24 21:31:00,
2013-01-24 16:36:00,22.8,3.7,30.43,NW,321,4.0,10.0,43,0.00,,SCT060,0.00,VWS V14.01,2013-01-24 21:36:00,
2013-01-24 16:41:00,23.0,3.8,30.43,North,352,2.0,10.0,43,0.00,,SCT060,0.00,VWS V14.01,2013-01-24 21:41:00,
2013-01-24 16:46:00,23.1,3.4,30.43,NNW,327,2.0,10.0,42,0.00,,SCT060,0.00,VWS V14.01,2013-01-24 21:46:00,
2013-01-24 16:51:00,22.8,3.2,30.43,West,275,5.0,16.0,42,0.00,,SCT060,0.00,VWS V14.01,2013-01-24 21:51:00,
2013-01-24 16:56:00,22.7,3.1,30.43,NNW,340,2.0,16.0,42,0.00,,SCT060,0.00,VWS V14.01,2013-01-24 21:56:00,
2013-01-24 17:01:00,22.3,3.2,30.43,North,360,3.0,9.0,43,0.00,,CLR,0.00,VWS V14.01,2013-01-24 22:01:00,
2013-01-24 17:06:00,21.8,2.8,30.44,North,349,1.0,9.0,43,0.00,,CLR,0.00,VWS V14.01,2013-01-24 22:06:00,
2013-01-24 17:11:00,21.5,3.0,30.44,WNW,301,7.0,9.0,44,0.00,,CLR,0.00,VWS V14.01,2013-01-24 22:11:00,
2013-01-24 17:16:00,21.3,3.3,30.44,West,280,6.0,10.0,45,0.00,,CLR,0.00,VWS V14.01,2013-01-24 22:16:00,
2013-01-24 17:21:00,21.1,2.6,30.44,North,354,4.0,13.0,44,0.00,,CLR,0.00,VWS V14.01,2013-01-24 22:21:00,
2013-01-24 17:26:00,20.9,2.4,30.45,NNE,23,3.0,13.0,44,0.00,,CLR,0.00,VWS V14.01,2013-01-24 22:26:00,
2013-01-24 17:31:00,20.7,2.7,30.45,NW,308,1.0,2.0,45,0.00,,CLR,0.00,VWS V14.01,2013-01-24 22:31:00,
2013-01-24 17:36:00,20.5,2.5,30.45,NW,304,4.0,11.0,45,0.00,,CLR,0.00,VWS V14.01,2013-01-24 22:36:00,
2013-01-24 17:41:00,20.4,2.5,30.45,NW,313,3.0,13.0,45,0.00,,CLR,0.00,VWS V14.01,2013-01-24 22:41:00,
2013-01-24 17:46:00,20.2,2.3,30.46,West,267,2.0,13.0,45,0.00,,CLR,0.00,VWS V14.01,2013-01-24 22:46:00,
2013-01-24 17:51:00,20.0,2.6,30.46,WNW,293,2.0,13.0,46,0.00,,CLR,0.00,VWS V14.01,2013-01-24 22:51:00,
2013-01-24 17:56:00,19.9,2.5,30.46,WNW,294,3.0,13.0,46,0.00,,CLR,0.00,VWS V14.01,2013-01-24 22:56:00,
2013-01-24 18:01:00,19.7,2.3,30.47,WNW,301,0.0,1.0,46,0.00,,CLR,0.00,VWS V14.01,2013-01-24 23:01:00,
2013-01-24 18:06:00,19.6,2.7,30.47,WNW,297,2.0,4.0,47,0.00,,CLR,0.00,VWS V14.01,2013-01-24 23:06:00,
2013-01-24 18:11:00,19.4,2.5,30.47,NW,313,6.0,6.0,47,0.00,,CLR,0.00,VWS V14.01,2013-01-24 23:11:00,
2013-01-24 18:16:00,19.5,2.6,30.47,West,274,1.0,8.0,47,0.00,,CLR,0.00,VWS V14.01,2013-01-24 23:16:00,
2013-01-24 18:21:00,19.3,2.8,30.47,WNW,295,3.0,8.0,48,0.00,,CLR,0.00,VWS V14.01,2013-01-24 23:21:00,
2013-01-24 18:26:00,19.2,2.7,30.48,WNW,291,1.0,8.0,48,0.00,,CLR,0.00,VWS V14.01,2013-01-24 23:26:00,
2013-01-24 18:31:00,19.1,2.7,30.48,WNW,300,1.0,3.0,48,0.00,,CLR,0.00,VWS V14.01,2013-01-24 23:31:00,
2013-01-24 18:36:00,19.0,2.6,30.48,WNW,302,4.0,4.0,48,0.00,,CLR,0.00,VWS V14.01,2013-01-24 23:36:00,
2013-01-24 18:41:00,18.8,2.8,30.48,WNW,288,3.0,4.0,49,0.00,,CLR,0.00,VWS V14.01,2013-01-24 23:41:00,
2013-01-24 18:46:00,18.6,3.1,30.49,NNE,13,1.0,4.0,50,0.00,,CLR,0.00,VWS V14.01,2013-01-24 23:46:00,
2013-01-24 18:51:00,18.3,2.8,30.49,WNW,288,1.0,4.0,50,0.00,,CLR,0.00,VWS V14.01,2013-01-24 23:51:00,
2013-01-24 18:56:00,18.1,2.6,30.49,NW,314,0.0,4.0,50,0.00,,CLR,0.00,VWS V14.01,2013-01-24 23:56:00,
2013-01-24 19:01:00,18.0,2.9,30.49,WNW,283,0.0,1.0,51,0.00,,CLR,0.00,VWS V14.01,2013-01-25 00:01:00,
2013-01-24 19:06:00,17.9,3.3,30.49,WNW,285,1.0,3.0,52,0.00,,CLR,0.00,VWS V14.01,2013-01-25 00:06:00,
2013-01-24 19:11:00,17.9,2.4,30.50,NNW,342,6.0,7.0,50,0.00,,CLR,0.00,VWS V14.01,2013-01-25 00:11:00,
2013-01-24 19:16:00,18.0,1.6,30.50,ESE,114,8.0,14.0,48,0.00,,CLR,0.00,VWS V14.01,2013-01-25 00:16:00,
2013-01-24 19:21:00,18.1,1.3,30.51,WNW,288,4.0,14.0,47,0.00,,CLR,0.00,VWS V14.01,2013-01-25 00:21:00,
2013-01-24 19:26:00,18.1,1.3,30.51,NNW,328,2.0,14.0,47,0.00,,CLR,0.00,VWS V14.01,2013-01-25 00:26:00,
2013-01-24 19:31:00,17.9,0.6,30.51,WNW,297,3.0,3.0,46,0.00,,CLR,0.00,VWS V14.01,2013-01-25 00:31:00,
2013-01-24 19:36:00,17.8,1.0,30.51,North,9,3.0,10.0,47,0.00,,CLR,0.00,VWS V14.01,2013-01-25 00:36:00,
2013-01-24 19:41:00,17.7,0.9,30.51,NE,44,1.0,10.0,47,0.00,,CLR,0.00,VWS V14.01,2013-01-25 00:41:00,
2013-01-24 19:46:00,17.4,0.6,30.51,NNW,332,3.0,10.0,47,0.00,,CLR,0.00,VWS V14.01,2013-01-25 00:46:00,
2013-01-24 19:51:00,17.3,0.5,30.51,WNW,290,2.0,10.0,47,0.00,,CLR,0.00,VWS V14.01,2013-01-25 00:51:00,
2013-01-24 19:56:00,17.2,0.4,30.51,NW,324,4.0,10.0,47,0.00,,CLR,0.00,VWS V14.01,2013-01-25 00:56:00,
2013-01-24 20:01:00,17.1,0.8,30.52,NW,305,7.0,9.0,48,0.00,,CLR,0.00,VWS V14.01,2013-01-25 01:01:00,
2013-01-24 20:06:00,16.9,0.6,30.52,North,11,2.0,9.0,48,0.00,,CLR,0.00,VWS V14.01,2013-01-25 01:06:00,
2013-01-24 20:11:00,16.7,0.4,30.51,East,81,4.0,9.0,48,0.00,,CLR,0.00,VWS V14.01,2013-01-25 01:11:00,
2013-01-24 20:16:00,16.5,0.7,30.51,West,264,1.0,9.0,49,0.00,,CLR,0.00,VWS V14.01,2013-01-25 01:16:00,
2013-01-24 20:21:00,16.3,0.9,30.51,North,3,1.0,9.0,50,0.00,,CLR,0.00,VWS V14.01,2013-01-25 01:21:00,
2013-01-24 20:26:00,16.1,0.8,30.51,North,3,2.0,9.0,50,0.00,,CLR,0.00,VWS V14.01,2013-01-25 01:26:00,
2013-01-24 20:31:00,15.9,1.0,30.50,WNW,298,4.0,4.0,51,0.00,,CLR,0.00,VWS V14.01,2013-01-25 01:31:00,
2013-01-24 20:36:00,15.9,1.0,30.50,WNW,290,3.0,7.0,51,0.00,,CLR,0.00,VWS V14.01,2013-01-25 01:36:00,
2013-01-24 20:41:00,15.9,1.4,30.51,WNW,291,2.0,8.0,52,0.00,,CLR,0.00,VWS V14.01,2013-01-25 01:41:00,
2013-01-24 20:46:00,15.8,1.3,30.51,WNW,300,0.0,8.0,52,0.00,,CLR,0.00,VWS V14.01,2013-01-25 01:46:00,
2013-01-24 20:51:00,15.7,1.6,30.51,WNW,298,1.0,8.0,53,0.00,,CLR,0.00,VWS V14.01,2013-01-25 01:51:00,
2013-01-24 20:56:00,15.5,1.8,30.51,WNW,302,2.0,8.0,54,0.00,,CLR,0.00,VWS V14.01,2013-01-25 01:56:00,
2013-01-24 21:01:00,15.4,1.7,30.52,WNW,286,2.0,3.0,54,0.00,,CLR,0.00,VWS V14.01,2013-01-25 02:01:00,
2013-01-24 21:06:00,15.3,2.0,30.51,WNW,295,3.0,6.0,55,0.00,,CLR,0.00,VWS V14.01,2013-01-25 02:06:00,
2013-01-24 21:11:00,15.2,2.0,30.52,NW,314,8.0,8.0,55,0.00,,CLR,0.00,VWS V14.01,2013-01-25 02:11:00,
2013-01-24 21:16:00,15.3,2.0,30.52,West,281,2.0,8.0,55,0.00,,CLR,0.00,VWS V14.01,2013-01-25 02:16:00,
2013-01-24 21:21:00,15.2,2.3,30.52,WNW,283,3.0,8.0,56,0.00,,CLR,0.00,VWS V14.01,2013-01-25 02:21:00,
2013-01-24 21:26:00,15.1,2.2,30.52,WNW,293,5.0,8.0,56,0.00,,CLR,0.00,VWS V14.01,2013-01-25 02:26:00,
2013-01-24 21:31:00,15.0,2.1,30.52,WNW,300,6.0,8.0,56,0.00,,CLR,0.00,VWS V14.01,2013-01-25 02:31:00,
2013-01-24 21:36:00,15.1,2.2,30.52,WNW,282,3.0,10.0,56,0.00,,CLR,0.00,VWS V14.01,2013-01-25 02:36:00,
2013-01-24 21:41:00,15.0,2.1,30.52,NW,323,4.0,10.0,56,0.00,,CLR,0.00,VWS V14.01,2013-01-25 02:41:00,
2013-01-24 21:46:00,14.9,2.0,30.52,WNW,293,2.0,10.0,56,0.00,,CLR,0.00,VWS V14.01,2013-01-25 02:46:00,
2013-01-24 21:51:00,14.7,2.2,30.52,NW,308,5.0,10.0,57,0.00,,CLR,0.00,VWS V14.01,2013-01-25 02:51:00,
2013-01-24 21:56:00,14.6,2.2,30.53,West,259,1.0,10.0,57,0.00,,CLR,0.00,VWS V14.01,2013-01-25 02:56:00,
2013-01-24 22:01:00,14.5,2.0,30.52,WNW,293,3.0,4.0,57,0.00,,CLR,0.00,VWS V14.01,2013-01-25 03:01:00,
2013-01-24 22:06:00,14.5,2.0,30.52,WNW,294,2.0,7.0,57,0.00,,CLR,0.00,VWS V14.01,2013-01-25 03:06:00,
2013-01-24 22:11:00,14.4,2.3,30.52,WNW,288,2.0,7.0,58,0.00,,CLR,0.00,VWS V14.01,2013-01-25 03:11:00,
2013-01-24 22:16:00,14.3,2.2,30.52,WNW,298,4.0,7.0,58,0.00,,CLR,0.00,VWS V14.01,2013-01-25 03:16:00,
2013-01-24 22:21:00,14.2,2.5,30.52,WNW,293,4.0,8.0,59,0.00,,CLR,0.00,VWS V14.01,2013-01-25 03:21:00,
2013-01-24 22:26:00,14.1,2.4,30.52,WNW,291,3.0,8.0,59,0.00,,CLR,0.00,VWS V14.01,2013-01-25 03:26:00,
2013-01-24 22:31:00,14.1,2.8,30.52,NNW,328,3.0,3.0,60,0.00,,CLR,0.00,VWS V14.01,2013-01-25 03:31:00,
2013-01-24 22:36:00,13.9,2.6,30.52,WNW,287,0.0,4.0,60,0.00,,CLR,0.00,VWS V14.01,2013-01-25 03:36:00,
2013-01-24 22:41:00,13.7,2.4,30.52,WNW,285,2.0,4.0,60,0.00,,CLR,0.00,VWS V14.01,2013-01-25 03:41:00,
2013-01-24 22:46:00,13.5,2.2,30.52,WNW,301,2.0,4.0,60,0.00,,CLR,0.00,VWS V14.01,2013-01-25 03:46:00,
2013-01-24 22:51:00,13.5,2.2,30.52,WNW,293,2.0,5.0,60,0.00,,CLR,0.00,VWS V14.01,2013-01-25 03:51:00,
2013-01-24 22:56:00,13.4,2.5,30.52,WNW,293,1.0,5.0,61,0.00,,CLR,0.00,VWS V14.01,2013-01-25 03:56:00,
2013-01-24 23:01:00,13.4,2.5,30.52,West,280,2.0,3.0,61,0.00,,CLR,0.00,VWS V14.01,2013-01-25 04:01:00,
2013-01-24 23:06:00,13.4,2.5,30.52,WNW,291,3.0,6.0,61,0.00,,CLR,0.00,VWS V14.01,2013-01-25 04:06:00,
2013-01-24 23:11:00,13.3,2.7,30.52,WNW,290,3.0,6.0,62,0.00,,CLR,0.00,VWS V14.01,2013-01-25 04:11:00,
2013-01-24 23:16:00,13.2,2.6,30.53,WNW,294,4.0,6.0,62,0.00,,CLR,0.00,VWS V14.01,2013-01-25 04:16:00,
2013-01-24 23:21:00,13.1,2.9,30.53,WNW,291,4.0,6.0,63,0.00,,CLR,0.00,VWS V14.01,2013-01-25 04:21:00,
2013-01-24 23:26:00,13.0,3.1,30.53,WNW,293,3.0,6.0,64,0.00,,CLR,0.00,VWS V14.01,2013-01-25 04:26:00,
2013-01-24 23:31:00,13.0,3.1,30.53,West,281,1.0,2.0,64,0.00,,CLR,0.00,VWS V14.01,2013-01-25 04:31:00,
2013-01-24 23:36:00,12.8,2.9,30.52,WNW,286,3.0,5.0,64,0.00,,CLR,0.00,VWS V14.01,2013-01-25 04:36:00,
2013-01-24 23:41:00,12.7,3.2,30.52,West,270,2.0,5.0,65,0.00,,CLR,0.00,VWS V14.01,2013-01-25 04:41:00,
2013-01-24 23:46:00,12.6,3.1,30.52,NW,307,2.0,5.0,65,0.00,,CLR,0.00,VWS V14.01,2013-01-25 04:46:00,
2013-01-24 23:50:00,12.6,3.1,30.52,WNW,295,5.0,6.0,65,0.00,,CLR,0.00,VWS V14.01,2013-01-25 04:50:00,
2013-01-24 23:55:00,12.6,3.1,30.52,WNW,293,5.0,6.0,65,0.00,,CLR,0.00,VWS V14.01,2013-01-25 04:55:00,